DW7764 Weather Reports


time (UTC)temp
C
wind
direction
speed
KPH
gust
KPH
rain 1hr
cm
rain 24hr
cm
rain mn
cm
humidity
%
barometer
mb
20260507141534 18 128 8.0 14.5 0.00 0.00 0.00 64 1017.3
20260507140035 18 120 4.8 17.7 0.00 0.00 0.00 66 1017.5
20260507134531 18 68 6.4 19.3 0.00 0.00 0.00 65 1017.8
20260507133030 18 88 4.8 25.7 0.00 0.00 0.00 66 1017.8
20260507131531 18 178 6.4 16.1 0.00 0.00 0.00 67 1017.9
20260507130033 18 105 4.8 14.5 0.00 0.00 0.00 68 1017.9
20260507124526 18 128 6.4 22.5 0.00 0.00 0.00 68 1018.2
20260507123032 18 94 6.4 19.3 0.00 0.00 0.00 68 1018.2
20260507121523 18 115 8.0 17.7 0.00 0.00 0.00 68 1018.3
20260507120023 18 232 6.4 20.9 0.00 0.00 0.00 69 1018.3
20260507114521 18 150 4.8 24.1 0.00 0.00 0.00 68 1018.4
20260507113026 18 132 4.8 16.1 0.00 0.00 0.00 70 1018.4
20260507111516 18 81 3.2 19.3 0.00 0.00 0.00 74 1018.5
20260507110014 17 148 6.4 17.7 0.00 0.00 0.00 78 1018.8
20260507104511 16 105 0.0 17.7 0.00 0.00 0.00 94 1018.8
20260507103010 16 106 4.8 14.5 0.00 0.00 0.00 94 1019.0
20260507101515 16 155 3.2 14.5 0.00 0.00 0.00 96 1019.0
20260507100008 16 89 3.2 16.1 0.00 0.00 0.00 97 1019.1
20260507094507 16 108 1.6 14.5 0.00 0.00 0.00 96 1019.2
20260507093009 16 93 6.4 16.1 0.00 0.00 0.00 96 1019.5
20260507091505 15 148 4.8 9.7 0.00 0.00 0.00 96 1019.4
20260507090004 15 133 3.2 8.0 0.00 0.00 0.00 98 1019.1
20260507084601 15 146 0.0 3.2 0.00 0.00 0.00 98 1019.2
20260507083059 15 123 1.6 6.4 0.00 0.00 0.00 99 1019.2
20260507081555 14 293 0.0 1.6 0.00 0.00 0.00 99 1019.4
20260507080052 13 293 0.0 3.2 0.00 0.00 0.00 99 1019.5
20260507074555 12 294 0.0 1.6 0.00 0.00 0.00 100 1019.7
20260507073047 12 294 0.0 0.0 0.00 0.00 0.00 100 1019.7
20260507071544 12 293 0.0 0.0 0.00 0.00 0.00 99 1019.6
20260507070047 11 294 0.0 0.0 0.00 0.00 0.00 99 1019.5
20260507064542 11 295 0.0 0.0 0.00 0.00 0.00 100 1019.3
20260507063037 10 294 0.0 0.0 0.00 0.00 0.00 99 1019.1
20260507061534 10 294 1.6 3.2 0.00 0.00 0.00 99 1019.1
20260507060035 8 293 0.0 0.0 0.00 0.00 0.00 99 1018.9
20260507054534 8 294 0.0 0.0 0.00 0.00 0.00 99 1018.8
20260507053032 8 295 0.0 0.0 0.00 0.00 0.00 99 1018.8
20260507051531 8 295 0.0 0.0 0.00 0.00 0.00 99 1018.5
20260507050037 8 294 0.0 1.6 0.00 0.00 0.00 99 1018.4
20260507044530 8 294 0.0 0.0 0.00 0.00 0.00 99 1018.4
20260507043029 8 294 0.0 0.0 0.00 0.00 0.00 99 1018.4
20260507041543 8 294 0.0 0.0 0.00 0.00 0.00 99 1018.4
20260507040026 8 293 0.0 1.6 0.00 0.00 0.00 99 1018.5
20260507034526 8 293 0.0 1.6 0.00 0.00 0.00 99 1018.3
20260507033022 8 294 0.0 1.6 0.00 0.00 0.00 99 1018.5
20260507031520 9 294 1.6 3.2 0.00 0.00 0.00 98 1018.5
20260507030017 10 293 0.0 0.0 0.00 0.00 0.00 96 1018.6
20260507024516 10 295 0.0 1.6 0.00 0.00 0.00 97 1018.5
20260507023015 10 294 0.0 0.0 0.00 0.00 0.00 95 1018.4
20260507021514 10 293 0.0 0.0 0.00 0.00 0.00 96 1018.4
20260507020014 10 294 0.0 0.0 0.00 0.00 0.00 97 1018.5
20260507014523 10 293 0.0 0.0 0.00 0.03 0.00 97 1018.8
20260507013030 10 293 0.0 0.0 0.00 0.03 0.00 97 1018.7
20260507011523 10 293 0.0 0.0 0.00 0.03 0.00 96 1018.6
20260507010009 10 294 0.0 0.0 0.00 0.03 0.00 96 1018.7
20260507004507 10 293 0.0 0.0 0.00 0.03 0.00 97 1018.9
20260507003005 10 293 0.0 0.0 0.00 0.03 0.00 96 1018.9
20260507001504 10 295 0.0 0.0 0.00 0.03 0.00 96 1019.0
20260507000017 10 293 0.0 0.0 0.00 0.03 0.00 96 1019.0
20260506234503 10 294 0.0 0.0 0.00 0.03 0.00 94 1019.1
20260506233002 10 294 0.0 0.0 0.00 0.03 0.00 94 1019.0
20260506231559 11 294 0.0 1.6 0.00 0.03 0.00 91 1019.1
20260506230059 11 293 0.0 0.0 0.00 0.03 0.00 93 1019.1
20260506224557 11 294 0.0 3.2 0.00 0.03 0.00 93 1019.0
20260506223118 10 152 0.0 0.0 0.00 0.03 0.00 91 1019.0
20260506221557 11 152 0.0 0.0 0.00 0.03 0.00 92 1019.0
20260506220051 11 153 0.0 0.0 0.00 0.03 0.00 91 1018.9
20260506214553 11 152 0.0 0.0 0.00 0.03 0.03 89 1018.8
20260506213049 12 153 0.0 0.0 0.00 0.03 0.03 89 1018.8
20260506211548 12 153 0.0 1.6 0.00 0.03 0.03 90 1018.9
20260506210048 11 152 0.0 0.0 0.00 0.03 0.03 89 1018.8
20260506204546 11 152 0.0 0.0 0.00 0.03 0.03 87 1018.6
20260506203046 12 152 0.0 0.0 0.00 0.03 0.03 85 1018.3
20260506201543 12 153 0.0 0.0 0.00 0.03 0.03 84 1018.2
20260506194540 14 152 0.0 0.0 0.00 0.03 0.03 78 1017.7
20260506193041 15 152 0.0 3.2 0.00 0.03 0.03 76 1017.4
20260506191539 15 134 1.6 6.4 0.00 0.03 0.03 75 1017.2
20260506190038 15 129 0.0 6.4 0.00 0.03 0.03 73 1017.1
20260506184537 16 190 0.0 9.7 0.00 0.03 0.03 71 1016.9
20260506183037 16 96 3.2 9.7 0.00 0.03 0.03 68 1016.6
20260506181538 17 177 4.8 14.5 0.00 0.03 0.03 66 1016.4
20260506180046 17 101 1.6 14.5 0.00 0.03 0.03 65 1016.3
20260506174536 17 116 1.6 12.9 0.00 0.05 0.03 64 1016.2
20260506173035 18 148 6.4 14.5 0.00 0.05 0.03 60 1016.0
20260506171547 18 125 4.8 8.0 0.00 0.05 0.03 56 1015.9
20260506170036 19 155 3.2 8.0 0.00 0.05 0.03 56 1015.7
20260506164536 19 180 4.8 16.1 0.00 0.43 0.03 54 1015.6
20260506163041 19 127 6.4 16.1 0.00 0.43 0.03 53 1015.5
20260506161544 20 176 3.2 11.3 0.00 0.43 0.03 54 1015.4
20260506160032 20 180 8.0 17.7 0.00 0.43 0.03 54 1015.4
20260506154529 20 125 8.0 19.3 0.00 0.43 0.03 55 1015.2
20260506153029 20 107 11.3 24.1 0.00 0.43 0.03 54 1015.2
20260506151528 20 95 6.4 16.1 0.00 0.43 0.03 53 1015.3
20260506150030 20 149 6.4 16.1 0.00 0.43 0.03 51 1015.4
20260506144527 21 115 1.6 6.4 0.00 0.43 0.03 49 1015.5
20260506143025 21 110 1.6 11.3 0.00 0.43 0.03 47 1015.5